Regional Weather Roundup
Issued by NWS

Home | Current Version | Previous Version | Text Only | Print | Product List | Glossary On
Versions: 1 2 3 4 5 6 7 8 9 10 11 12 13 14 15 16 17 18 19 20 21 22 23 24 25 26 27 28 29 30 31 32 33 34 35 36 37 38 39 40 41 42 43 44 45 46 47 48 49 50
000
ASUS43 KIND 071509
RWRIN

WEATHER ROUNDUP FOR INDIANA
NATIONAL WEATHER SERVICE INDIANAPOLIS IN
1000 AM EST SUN FEB 07 2016

NOTE: "FAIR" INDICATES FEW OR NO CLOUDS BELOW 12,000 FEET WITH NO
SIGNIFICANT WEATHER AND/OR OBSTRUCTIONS TO VISIBILITY.

* - STATION DOES NOT REPORT WEATHER SUCH AS PRECIPITATION OR FOG.

+ - STATION NOT QUALITY CONTROLLED BY THE NATIONAL WEATHER SERVICE.
    USE DATA WITH CAUTION...ESPECIALLY DEWPOINT AND RELATIVE
    HUMIDITY OBSERVATIONS.

INZ001>003-010>013-019-020-071600-
NORTHWEST INDIANA

CITY           SKY/WX    TMP DP  RH WIND       PRES   REMARKS
GARY /AIRPORT/ PTSUNNY   41  28  60 SW17      29.86F
LA PORTE +     MOSUNNY   39  32  77 S8        29.88F
MICHIGAN CITY+ CLOUDY    39  30  70 S12G18    29.86F
MONTICELLO +   CLOUDY    38  25  58 SW12      29.93F
RENSSELAER +   MOSUNNY   37  28  70 SW16G23   29.91F
VALPARAISO     PTSUNNY   39  29  67 S14       29.87F

$$

LMZ046-743>745-071600-
SOUTHERN LAKE MICHIGAN

STATION/POSITION TIME  TEMP    WIND        PRES    WAVE
                       AIR SEA DIR/SP/G            HT
                 (UTC) (F)     (DEG/KT/KT) (MB)    (FT)
BURNS HARBOR     1419   39     200/ 19/ 25 1011.5F
MICHIGAN CITY    1400   39     160/ 16/ 20   N/A

$$

INZ004-005-014>016-021>024-071600-
NORTH CENTRAL INDIANA

CITY           SKY/WX    TMP DP  RH WIND       PRES   REMARKS
GOSHEN         MOSUNNY   38  28  67 S15       29.90F
LOGANSPORT +   MOSUNNY   36  27  69 S9        29.95F
PERU/GRISSOM   MOSUNNY   39  29  66 SW14      29.94F
ROCHESTER +    CLOUDY    39  27  60 SW12G17   29.93F
SOUTH BEND     PTSUNNY   39  28  64 SW14      29.88F
WARSAW +       CLOUDY    37  28  70 SW6       29.92S

$$

INZ006>009-017-018-025>027-071600-
NORTHEAST INDIANA

CITY           SKY/WX    TMP DP  RH WIND       PRES   REMARKS
AUBURN +       MOSUNNY   36  28  75 S7        29.95S
FORT WAYNE     PTSUNNY   37  27  67 S13       29.97S
HUNTINGTON +   MOSUNNY   37  24  59 S7        29.96F

$$

INZ028-029-035-036-043>045-051>053-071600-
WEST CENTRAL INDIANA

CITY           SKY/WX    TMP DP  RH WIND       PRES   REMARKS
GREENCASTLE +  MOSUNNY   37  18  44 SW6       30.02S
LAFAYETTE      MOSUNNY   40  28  62 S9        29.95F
TERRE HAUTE    SUNNY     41  25  53 SW12      30.02F

$$

INZ030>032-037>040-046>048-054>057-064-065-071600-
CENTRAL INDIANA

CITY           SKY/WX    TMP DP  RH WIND       PRES   REMARKS
FRANKFORT +    CLOUDY    37  22  53 S10       29.98F
GREENWOOD *+   CLOUDY    39  28  65 S10       30.03F
INDIANAPOLIS   CLOUDY    40  24  53 S10       30.01S
-EAGLE CREEK   MOSUNNY   40  23  50 SW13G20   30.01S
KOKOMO *+        N/A     39  27  60 S14       29.96F
MARION +       CLOUDY    36  21  54 S15       29.99S
MT COMFORT *+  MOSUNNY   37  25  60 S10       30.02F
SHELBYVILLE    MOSUNNY   38  25  59 S13       30.04S
ZIONSVILLE +   PTSUNNY   38  26  62 S13       30.00S

$$

INZ033-034-041-042-049-050-058-059-071600-
EAST CENTRAL INDIANA

CITY           SKY/WX    TMP DP  RH WIND       PRES   REMARKS
MUNCIE         MOSUNNY   41  24  51 S9        30.00F

$$

INZ060-061-067>069-081>083-085>088-071600-
SOUTHWEST INDIANA

CITY           SKY/WX    TMP DP  RH WIND       PRES   REMARKS
EVANSVILLE     SUNNY     43  26  51 SW14      30.11F
HUNTINGBURG *+ MOSUNNY   37  25  60 S12       30.11S
WASHINGTON +   CLOUDY    40  23  50 S13       30.07S

$$

INZ062-063-066-070>080-084-089>092-071600-
SOUTH CENTRAL AND SOUTHEAST INDIANA

CITY           SKY/WX    TMP DP  RH WIND       PRES   REMARKS
BEDFORD +      CLOUDY    41  25  52 S8        30.07S
BLOOMINGTON    MOSUNNY   42  22  44 S6        30.05S
MADISON *+     MOSUNNY   37  27  65 S6        30.10F
NORTH VERNON + MOSUNNY   39  23  52 CALM      30.08F
SEYMOUR +      CLOUDY    43  27  52 S9        30.08S

$$




USA.gov is the U.S. government's official web portal to all federal, state and local government web resources and services.